TimeMST,TemperatureF,Dew PointF,Humidity,Sea Level PressureIn,VisibilityMPH,Wind Direction,Wind SpeedMPH,Gust SpeedMPH,PrecipitationIn,Events,Conditions,WindDirDegrees,DateUTC
12:52 AM,14.0,10.4,86,30.19,10.0,Calm,Calm,-,N/A,,Clear,0,2013-02-28 07:52:00
1:52 AM,18.0,14.0,84,30.29,10.0,Calm,Calm,-,N/A,,Clear,0,2013-02-28 08:52:00
2:52 AM,16.0,14.0,92,30.27,10.0,Calm,Calm,-,N/A,,Clear,0,2013-02-28 09:52:00
3:52 AM,15.1,14.0,95,30.30,10.0,East,3.5,-,N/A,,Clear,100,2013-02-28 10:52:00
4:52 AM,17.1,14.0,88,30.30,7.0,Calm,Calm,-,N/A,,Clear,0,2013-02-28 11:52:00
5:52 AM,12.9,12.0,96,30.32,5.0,Calm,Calm,-,N/A,,Partly Cloudy,0,2013-02-28 12:52:00
6:52 AM,14.0,10.9,88,30.34,4.0,Calm,Calm,-,N/A,,Mostly Cloudy,0,2013-02-28 13:52:00
7:52 AM,21.0,19.0,92,30.33,8.0,Calm,Calm,-,N/A,,Clear,0,2013-02-28 14:52:00
8:52 AM,25.0,21.9,88,30.33,8.0,SSE,5.8,-,N/A,,Partly Cloudy,150,2013-02-28 15:52:00
9:22 AM,26.6,21.2,80,30.20,10.0,Variable,5.8,-,N/A,,Partly Cloudy,0,2013-02-28 16:22:00
9:52 AM,28.9,23.0,78,30.33,10.0,Variable,4.6,-,N/A,,Clear,0,2013-02-28 16:52:00
10:52 AM,34.0,21.9,61,30.30,10.0,Variable,5.8,-,N/A,,Clear,0,2013-02-28 17:52:00
11:52 AM,39.0,21.0,49,30.27,10.0,NNE,4.6,-,N/A,,Clear,20,2013-02-28 18:52:00
12:52 PM,41.0,21.0,45,30.25,10.0,Calm,Calm,-,N/A,,Partly Cloudy,0,2013-02-28 19:52:00
1:52 PM,39.0,21.0,49,30.24,8.0,North,10.4,20.7,0.00,,Unknown,350,2013-02-28 20:52:00
2:37 PM,35.6,26.6,70,30.14,1.5,NNW,19.6,28.8,0.00,Snow,Light Snow,340,2013-02-28 21:37:00
2:43 PM,33.8,28.4,81,30.13,2.0,NE,8.1,28.8,0.00,Snow,Light Snow,50,2013-02-28 21:43:00
2:52 PM,35.1,30.0,82,30.25,7.0,East,4.6,-,0.00,Snow,Light Snow,80,2013-02-28 21:52:00
3:52 PM,37.9,27.0,65,30.25,10.0,NNE,3.5,-,0.00,,Scattered Clouds,20,2013-02-28 22:52:00
4:52 PM,37.0,26.1,65,30.25,10.0,South,4.6,-,N/A,,Mostly Cloudy,170,2013-02-28 23:52:00
5:52 PM,35.1,28.0,76,30.27,10.0,SSW,5.8,-,N/A,,Overcast,210,2013-03-01 00:52:00
6:52 PM,35.1,25.0,67,30.30,10.0,NNE,9.2,-,N/A,,Overcast,30,2013-03-01 01:52:00
7:52 PM,33.1,25.0,72,30.29,10.0,NNW,6.9,-,N/A,,Overcast,330,2013-03-01 02:52:00
8:52 PM,33.1,24.1,70,30.29,10.0,NW,5.8,-,0.00,,Overcast,320,2013-03-01 03:52:00
9:52 PM,30.9,23.0,72,30.28,10.0,WNW,6.9,-,N/A,,Mostly Cloudy,300,2013-03-01 04:52:00
10:52 PM,28.9,21.9,75,30.29,10.0,NW,8.1,-,N/A,,Mostly Cloudy,320,2013-03-01 05:52:00
11:52 PM,23.0,18.0,81,30.29,10.0,NNW,8.1,-,N/A,,Clear,330,2013-03-01 06:52:00